Regional Weather Roundup
Issued by NWS

Home | Current Version | Previous Version | Text Only | Print | Product List | Glossary On
Versions: 1 2 3 4 5 6 7 8 9 10 11 12 13 14 15 16 17 18 19 20 21 22 23 24 25 26 27 28 29 30 31 32 33 34 35 36 37 38 39 40 41 42 43 44 45 46 47 48 49 50
442
ASUS43 KTOP 220208
RWRKS

WEATHER ROUNDUP FOR KANSAS
NATIONAL WEATHER SERVICE GOODLAND KS
900 PM CDT FRI JUL 21 2017

NOTE:  "FAIR" INDICATES FEW OR NO CLOUDS BELOW 12,000 FEET WITH NO
SIGNIFICANT WEATHER AND/OR OBSTRUCTIONS TO VISIBILITY.

KSZ001>006-013>018-027>032-041>047-220300-
NORTHWEST KANSAS

CITY           SKY/WX    TMP DP  RH WIND       PRES   REMARKS
GOODLAND       CLEAR     84  65  52 SE3       29.90R
HAYS           CLEAR     92  58  31 S8        29.79S
HILL CITY      CLEAR     94  57  28 S7        29.80R
RUSSELL        CLEAR     90  58  33 S9        29.77S
$$

KSZ061>065-074>080-084>089-220300-
SOUTHWEST KANSAS

CITY           SKY/WX    TMP DP  RH WIND       PRES   REMARKS
DODGE CITY     CLEAR     87  56  34 S7        29.86S
ELKHART          N/A     83  48  29 S8          N/A
GARDEN CITY    CLEAR     86  59  39 S7        29.86S
LIBERAL        CLEAR     88  56  33 S12       29.90R
PRATT          CLEAR     89  56  31 S12       29.84S
$$

KSZ066>073-081>083-090>101-220300-
SOUTHEAST KANSAS

CITY           SKY/WX    TMP DP  RH WIND       PRES   REMARKS
CHANUTE        CLEAR     89  72  56 S13       29.86S HX  96
COFFEYVILLE    CLEAR     88  74  63 S12       29.86S HX  96
HUTCHINSON     CLEAR     92  60  34 S8        29.80S
MEDICINE LODGE   N/A     94  58  29 S9        29.81S
NEWTON         CLEAR     92  68  45 S16       29.83S HX  96
PARSONS        CLEAR     88  72  58 S7        29.88R
WICHITA INTL   CLEAR     91  65  41 SE9       29.81S
WICHITA JABRA  CLEAR     91  68  46 S14       29.82S HX  95
WICHITA MCCONL CLEAR     92  67  43 S14       29.83S HX  95
WINFIELD       CLEAR     91  68  46 S15       29.84S HX  95
$$

KSZ007>012-019>026-033>040-048>060-102>105-220300-
NORTHEAST KANSAS

CITY           SKY/WX    TMP DP  RH WIND       PRES   REMARKS
CONCORDIA      CLEAR     91  63  39 S10       29.75R
EMPORIA        CLEAR     89  70  53 S13       29.82S
LAWRENCE       CLEAR     90  73  57 SE10      29.80R HX  98
MANHATTAN      CLEAR     96  67  38 S12       29.75S HX 100
MARYSVILLE     CLEAR     91  64  40 S8        29.75R
OLATHE IND     CLEAR     87  74  64 S13       29.84S HX  95
OLATHE EXE     CLEAR     86  75  69 S12       29.84S HX  95
SALINA         CLEAR     96  60  30 S9        29.76S HX  96
TOPEKA BILLARD CLEAR     90  75  61 S12       29.78S HX 100
TOPEKA FORBES  CLEAR     90  74  59 S12       29.80R HX  99
$$




USA.gov is the U.S. government's official web portal to all federal, state and local government web resources and services.